南山-ハーン彗星

P/2024 FG9 ( Nanshan-Hahn )

English version
Home page
Updated on May 2, 2025

---------------------------------------------------------------------

・ プロフィール

発見日 2024年3月8日、4月10日
発見光度 19.7等、18.7等
発見者 Xio Liao (Xingming Sky Survey, Mt. Nanshan station, Xinjiang Astronomical Observatory), Robson Henrique dos Santos Hahn (Moeckmuehl, Germany)

・ 写真集

・ 軌道要素

Epoch 2024 Oct. 17.0 TT = JDT 2460600.5
T 2024 May 20.35360 TT                                  Rudenko
q   1.5963970            (2000.0)            P               Q
n   0.16770861     Peri.  245.91547     -0.75384280     -0.65641905
a   3.2566104      Node   253.04366     +0.61327563     -0.68714880
e   0.5097980      Incl.    1.73121     +0.23582627     -0.31135278
P   5.88
>From 136 observations 2016 July 29-2024 July 23, mean residual 0".6.

・ 星図

・ 光度変化

        m1 = -5.0 + 5 logΔ + 50 log r(t - 200)  [  ,15]  (              〜2024年 6月 4日)
        m1 =  9.0 + 5 logΔ + 20 log r           [15,  ]  (2024年 6月 4日〜              )

---------------------------------------------------------------------

軌道要素はM.P.E.C. 2024-R10に掲載されたものです。
星図はステラナビゲータ Ver.11 (アストロアーツ) で作成したものです。
光度グラフはComet for Windowsで作成したものです。

---------------------------------------------------------------------

Copyright(C) Seiichi Yoshida (comet@aerith.net). All rights reserved.